Location: Riverton
(43.0250°N, 108.3790°W)
Time: 17:09:59
(UTC-07:00)

Amateur Radio Satellites - All Passes

Search period start: 22 January 2018 16:39
Search period end: 23 January 2018 16:39
Location: Riverton, 43.0250°N, 108.3790°W

Satellite Date Start Highest point End Downlink Frequencies (MHz)
Time Altitude Azimuth
NUDT-PHONESAT 22 Jan 16:40:58 16:43:12 15° 66° (ENE) 16:45:27 437.300
DOVE 4 22 Jan 16:45:44 16:49:44 39° 262° (W) 16:53:39 437.250
NO-84 22 Jan 16:47:43 16:50:51 89° 329° (NNW) 16:53:48 435.350 FM
XW-2D 22 Jan 16:48:59 16:52:20 29° 70° (ENE) 16:55:41 145.860 - 145.880
KKS-1 22 Jan 16:50:53 16:54:15 21° 94° (E) 16:57:36 437.445
ITUPSAT 1 22 Jan 17:00:26 17:04:24 26° 295° (WNW) 17:08:21 437.325
HO-68 22 Jan 17:01:40 17:07:41 30° 60° (ENE) 17:13:42 435.675
STARS 22 Jan 17:03:26 17:04:09 10° 89° (E) 17:04:53 437.465
XW-2B 22 Jan 17:06:19 17:09:57 45° 73° (ENE) 17:13:38 145.730 - 145.750
AO-7 22 Jan 17:10:41 17:13:00 11° 275° (W) 17:15:21 .
M-CUBED/EXP-1 PRIME 22 Jan 17:13:10 17:15:45 16° 261° (W) 17:18:15 437.505
MOZHAYETS 4 22 Jan 17:15:18 17:16:17 11° 302° (WNW) 17:17:17
CUTE 1.7 + AOD 2 22 Jan 17:19:37 17:22:46 20° 66° (ENE) 17:25:55 437.475
CUBESAT XI-V 22 Jan 17:21:01 17:25:00 29° 292° (WNW) 17:28:57 437.345
BEESAT 2 22 Jan 17:23:31 17:25:39 14° 38° (NE) 17:27:47 435.950
PCSat 22 Jan 17:27:58 17:32:34 27° 46° (NE) 17:37:07 145.827
XW-2C 22 Jan 17:36:36 17:40:26 74° 259° (W) 17:44:15 145.795 - 145.815
CUTE-I 22 Jan 17:36:41 17:42:00 82° 75° (ENE) 17:47:20 437.470
LilacSat-2 22 Jan 17:36:59 17:40:49 67° 259° (W) 17:44:40 437.200
BEESAT 22 Jan 17:40:35 17:42:18 12° 302° (WNW) 17:44:01 436.000
CUBEBUG 2 22 Jan 17:51:34 17:55:24 29° 68° (ENE) 17:59:21 437.445
UWE-3 22 Jan 17:53:34 17:56:40 19° 64° (ENE) 17:59:49 435.000/436.395/437.385
KAITUO 1B 22 Jan 18:05:53 18:09:30 45° 261° (W) 18:13:07 145.475/437.950
BEESAT 3 22 Jan 18:06:59 18:10:55 80° 238° (WSW) 18:14:45 437.485
XW-2F 22 Jan 18:11:32 18:14:53 30° 263° (W) 18:18:16 145.980 - 146.000
ZACube-1 22 Jan 18:13:05 18:15:48 16° 63° (ENE) 18:18:33 437.345
NUDT-PHONESAT 22 Jan 18:13:11 18:16:42 38° 262° (W) 18:20:13 437.300
AAUSAT CUBESAT 2 22 Jan 18:14:04 18:17:04 20° 66° (ENE) 18:20:04 437.432
AO-73 22 Jan 18:18:34 18:21:17 16° 63° (ENE) 18:24:01 145.935
AO-85 22 Jan 18:21:52 18:24:19 14° 34° (NE) 18:26:51 145.980
XW-2D 22 Jan 18:23:40 18:26:31 20° 266° (W) 18:29:23 145.860 - 145.880
NO-84 22 Jan 18:26:33 18:28:21 15° 338° (NNW) 18:30:06 435.350 FM
KKS-1 22 Jan 18:26:47 18:30:56 39° 290° (WNW) 18:35:04 437.445
RS-15 22 Jan 18:33:47 18:44:04 39° 253° (WSW) 18:53:57 29.354- 29.394
STARS 22 Jan 18:36:34 18:41:00 76° 285° (WNW) 18:45:24 437.465
SEEDS 22 Jan 18:37:21 18:41:35 84° 74° (ENE) 18:45:48 437.485
XW-2B 22 Jan 18:42:29 18:44:21 13° 269° (W) 18:46:14 145.730 - 145.750
HO-68 22 Jan 18:48:00 18:55:01 58° 258° (WSW) 19:02:04 435.675
Oscar 11 22 Jan 18:49:02 18:52:10 20° 65° (ENE) 18:55:19 .
CUTE 1.7 + AOD 2 22 Jan 18:54:23 18:58:21 37° 263° (W) 19:02:19 437.475
BEESAT 2 22 Jan 18:59:54 19:03:56 84° 237° (WSW) 19:07:53 435.950
PCSat 22 Jan 19:10:58 19:16:14 53° 246° (WSW) 19:21:28 145.827
CUTE-I 22 Jan 19:20:23 19:22:40 13° 271° (W) 19:24:58 437.470
FO-29 22 Jan 19:26:31 19:30:22 21° 93° (E) 19:34:16 435.910
CUBEBUG 2 22 Jan 19:28:11 19:31:57 28° 266° (W) 19:35:52 437.445
UWE-3 22 Jan 19:28:24 19:32:42 48° 262° (W) 19:37:09 435.000/436.395/437.385
STRAND 1 22 Jan 19:29:25 19:34:27 52° 100° (E) 19:39:28 437.568
XW-2A 22 Jan 19:34:37 19:37:58 53° 260° (W) 19:41:20 145.665 - 145.685
ZACube-1 22 Jan 19:47:10 19:51:34 57° 260° (W) 19:56:05 437.345
AAUSAT CUBESAT 2 22 Jan 19:48:27 19:52:16 36° 263° (W) 19:56:06 437.432
AO-73 22 Jan 19:52:36 19:57:00 57° 260° (W) 20:01:30 145.935
AO-85 22 Jan 20:00:45 20:05:40 62° 54° (NE) 20:10:51 145.980
DELFI C3 22 Jan 20:05:42 20:08:44 22° 68° (ENE) 20:11:47 145.870
nSIGHT-1 22 Jan 20:06:29 20:09:37 70° 144° (SE) 20:12:46 .
Max Valier Satellite 22 Jan 20:18:34 20:21:18 20° 67° (ENE) 20:24:03 145.860
Oscar 11 22 Jan 20:23:54 20:28:01 41° 262° (W) 20:32:09 .
ISS 22 Jan 20:28:17 20:31:32 76° 145° (SE) 20:34:48 437.550
EO-88 22 Jan 20:32:21 20:34:55 18° 67° (ENE) 20:37:29 145.990 - 145.960
UNISAT 6 22 Jan 20:37:31 20:38:35 11° 88° (E) 20:39:39 437.425
STRAND 1 22 Jan 21:09:26 21:13:15 22° 297° (WNW) 21:17:05 437.568
FO-29 22 Jan 21:10:50 21:15:47 47° 290° (WNW) 21:20:48 435.910
YUBILEINY 22 Jan 21:10:54 21:15:31 16° 75° (ENE) 21:20:07 435.215
ESTCUBE 1 22 Jan 21:24:29 21:25:58 11° 60° (ENE) 21:27:28 437.505/2401.250
DELFI C3 22 Jan 21:39:56 21:43:20 28° 264° (W) 21:46:44 145.870
AO-85 22 Jan 21:42:07 21:45:44 20° 249° (WSW) 21:49:26 145.980
NO-84 22 Jan 21:43:06 21:44:48 14° 22° (NNE) 21:46:30 435.350 FM
nSIGHT-1 22 Jan 21:43:21 21:46:01 24° 343° (NNW) 21:48:42 .
LO-87 22 Jan 21:44:48 21:47:08 17° 67° (ENE) 21:49:30 145.935 - 145.965
Max Valier Satellite 22 Jan 21:51:38 21:54:55 29° 264° (W) 21:58:14 145.860
TIGRISAT 22 Jan 21:55:13 21:59:54 63° 101° (E) 22:04:32 435.000
EO-88 22 Jan 22:05:05 22:08:20 30° 263° (W) 22:11:35 145.990 - 145.960
ISS 22 Jan 22:05:32 22:08:17 25° 344° (NNW) 22:11:04 437.550
UNISAT 6 22 Jan 22:11:07 22:15:51 82° 286° (WNW) 22:20:32 437.425
SPROUT 22 Jan 22:29:46 22:31:29 12° 61° (ENE) 22:33:13 437.525
AIST 2D 22 Jan 22:44:44 22:47:24 20° 94° (E) 22:50:03 435.315
VELOX 1 22 Jan 22:50:15 22:51:54 12° 60° (ENE) 22:53:33 145.980
ESTCUBE 1 22 Jan 22:57:34 23:02:06 83° 256° (WSW) 23:06:39 437.505/2401.250
YUBILEINY 22 Jan 23:01:58 23:10:47 79° 94° (E) 23:19:35 435.215
O/OREOS (USA 219) 22 Jan 23:04:00 23:06:30 15° 99° (E) 23:09:00 437.305
EO-79 22 Jan 23:08:13 23:10:14 13° 90° (E) 23:12:14 145.935-145.965
LO-87 22 Jan 23:17:04 23:20:17 31° 263° (W) 23:23:32 145.935 - 145.965
PRISM 22 Jan 23:17:21 23:21:25 72° 286° (WNW) 23:25:30 437.425
NO-84 22 Jan 23:19:27 23:22:18 85° 214° (SSW) 23:25:12 435.350 FM
nSIGHT-1 22 Jan 23:20:45 23:22:57 17° 3° (N) 23:25:09 .
TIGRISAT 22 Jan 23:33:15 23:36:03 16° 298° (WNW) 23:38:50 435.000
POLYITAN 1 22 Jan 23:42:23 23:46:13 30° 96° (E) 23:49:59 437.675
ISS 22 Jan 23:43:13 23:45:34 18° 4° (N) 23:47:55 437.550
UNISAT 6 22 Jan 23:51:03 23:51:44 10° 302° (WNW) 23:52:26 437.425
NANOSAT C BR1 22 Jan 23:55:40 23:59:39 37° 98° (E) 00:03:36 145.865
SPROUT 23 Jan 00:02:34 00:06:47 69° 259° (W) 00:11:04 437.525
QB50P2 23 Jan 00:11:59 00:16:17 74° 101° (E) 00:20:33 145.880/145.840
AIST 2D 23 Jan 00:17:42 00:20:29 23° 291° (WNW) 00:23:15 435.315
UKube-1 23 Jan 00:18:14 00:20:00 12° 60° (ENE) 00:21:44 .
VELOX 1 23 Jan 00:23:21 00:27:43 76° 257° (WSW) 00:32:07 145.980
DX 1 23 Jan 00:32:53 00:36:33 28° 67° (ENE) 00:40:13 434.975-435.025
DUCHIFAT 1 23 Jan 00:37:48 00:42:05 85° 286° (WNW) 00:46:20 145.980
O/OREOS (USA 219) 23 Jan 00:40:59 00:45:24 56° 296° (WNW) 00:49:51 437.305
EO-79 23 Jan 00:42:07 00:46:20 58° 286° (WNW) 00:50:31 145.935-145.965
nSIGHT-1 23 Jan 00:56:52 00:59:47 33° 23° (NNE) 01:02:43 .
YUBILEINY 23 Jan 01:01:46 01:08:34 24° 296° (WNW) 01:15:24 435.215
MOZHAYETS 4 23 Jan 01:03:59 01:05:41 12° 60° (ENE) 01:07:23
Oscar 19 23 Jan 01:11:16 01:15:51 31° 96° (E) 01:20:23 437.125/150
Gurwin Techsat 1B 23 Jan 01:16:00 01:20:27 27° 94° (E) 01:24:54 435.225
POLYITAN 1 23 Jan 01:18:19 01:21:50 25° 293° (WNW) 01:25:20 437.675
ISS 23 Jan 01:19:38 01:22:42 36° 24° (NNE) 01:25:46 437.550
50 SAT 23 Jan 01:28:27 01:31:30 72° 258° (WSW) 01:34:36 437.505
AO-91 23 Jan 01:29:22 01:33:53 57° 101° (E) 01:38:49 145.960
BUGSAT 1 23 Jan 01:29:49 01:34:06 81° 103° (ESE) 01:38:21 437.445
NANOSAT C BR1 23 Jan 01:31:55 01:35:06 21° 294° (WNW) 01:38:15 145.865
BEESAT 23 Jan 01:32:29 01:35:02 15° 60° (ENE) 01:37:36 436.000
QB50P2 23 Jan 01:49:56 01:51:27 12° 299° (WNW) 01:52:58 145.880/145.840
UKube-1 23 Jan 01:51:08 01:55:25 71° 257° (WSW) 01:59:44 .
DX 1 23 Jan 02:08:57 02:12:39 28° 264° (W) 02:16:23 434.975-435.025
ITUPSAT 1 23 Jan 02:29:38 02:34:13 48° 71° (ENE) 02:38:50 437.325
nSIGHT-1 23 Jan 02:33:00 02:35:59 38° 220° (SW) 02:38:57 .
MOZHAYETS 4 23 Jan 02:37:29 02:42:08 84° 257° (WSW) 02:46:49
CUBESAT XI-V 23 Jan 02:47:32 02:51:42 32° 69° (ENE) 02:55:51 437.345
Oscar 19 23 Jan 02:50:31 02:55:08 34° 293° (WNW) 02:59:43 437.125/150
Gurwin Techsat 1B 23 Jan 02:55:33 03:00:30 41° 292° (WNW) 03:05:27 435.225
ISS 23 Jan 02:56:09 02:59:11 35° 221° (SW) 03:02:12 437.550
AO-91 23 Jan 03:06:59 03:10:00 18° 294° (WNW) 03:13:11 145.960
BEESAT 23 Jan 03:07:27 03:12:12 72° 258° (WSW) 03:17:00 436.000
BUGSAT 1 23 Jan 03:07:50 03:08:47 11° 300° (WNW) 03:09:43 437.445
AO-7 23 Jan 03:11:03 03:18:53 42° 99° (E) 03:26:38 .
FALCONSAT 3 23 Jan 03:12:31 03:14:44 15° 162° (SSE) 03:16:57 435.103
KKS-1 23 Jan 03:49:50 03:53:14 22° 65° (ENE) 03:56:39 437.445
STARS 23 Jan 04:00:43 04:02:14 12° 60° (ENE) 04:03:46 437.465
ITAMSAT 1 23 Jan 04:01:30 04:06:41 63° 102° (ESE) 04:11:50 435.822/435.867
ITUPSAT 1 23 Jan 04:08:52 04:12:16 19° 267° (W) 04:15:42 437.325
CUBESAT XI-V 23 Jan 04:25:04 04:29:03 27° 265° (W) 04:33:02 437.345
DOVE 4 23 Jan 04:42:16 04:46:30 45° 99° (E) 04:50:58 437.250
M-CUBED/EXP-1 PRIME 23 Jan 04:49:06 04:51:47 23° 101° (E) 04:54:25 437.505
FALCONSAT 3 23 Jan 04:50:09 04:53:12 24° 177° (S) 04:56:14 435.103
AO-7 23 Jan 05:03:48 05:11:42 48° 298° (WNW) 05:19:33 .
XW-2C 23 Jan 05:10:39 05:11:17 10° 90° (E) 05:11:54 145.795 - 145.815
SO-50 23 Jan 05:10:50 05:15:17 89° 116° (ESE) 05:19:51 436.795
LilacSat-2 23 Jan 05:11:01 05:12:26 12° 90° (E) 05:13:52 437.200
STRAND 1 23 Jan 05:11:16 05:12:51 11° 57° (ENE) 05:14:25 437.568
KKS-1 23 Jan 05:25:29 05:29:34 37° 262° (W) 05:33:41 437.445
STARS 23 Jan 05:33:35 05:37:56 77° 257° (WSW) 05:42:19 437.465
KAITUO 1B 23 Jan 05:36:43 05:38:55 15° 92° (E) 05:41:06 145.475/437.950
FO-29 23 Jan 05:41:58 05:44:49 13° 58° (ENE) 05:47:33 435.910
ITAMSAT 1 23 Jan 05:42:08 05:45:38 19° 299° (WNW) 05:49:08 435.822/435.867
XW-2F 23 Jan 05:42:20 05:45:22 23° 95° (E) 05:48:23 145.980 - 146.000
NUDT-PHONESAT 23 Jan 05:42:44 05:45:08 17° 93° (E) 05:47:31 437.300
CUTE-I 23 Jan 05:53:05 05:57:45 30° 96° (E) 06:02:23 437.470
XW-2D 23 Jan 05:53:59 05:57:29 36° 98° (E) 06:00:57 145.860 - 145.880
XW-2B 23 Jan 06:11:32 06:15:15 58° 100° (E) 06:18:56 145.730 - 145.750
HO-68 23 Jan 06:15:03 06:20:59 27° 94° (E) 06:26:52 435.675
DOVE 4 23 Jan 06:20:51 06:23:55 19° 294° (WNW) 06:27:05 437.250
SEEDS 23 Jan 06:21:48 06:23:40 13° 90° (E) 06:25:34 437.485
M-CUBED/EXP-1 PRIME 23 Jan 06:23:38 06:26:06 19° 298° (WNW) 06:28:30 437.505
FALCONSAT 3 23 Jan 06:28:58 06:31:42 20° 193° (SSW) 06:34:25 435.103
CUTE 1.7 + AOD 2 23 Jan 06:38:00 06:41:49 32° 96° (E) 06:45:36 437.475
XW-2C 23 Jan 06:42:07 06:45:48 55° 285° (WNW) 06:49:26 145.795 - 145.815
LilacSat-2 23 Jan 06:43:20 06:47:00 48° 286° (WNW) 06:50:37 437.200
RS-15 23 Jan 06:44:58 06:55:39 37° 106° (ESE) 07:06:13 29.354- 29.394
STRAND 1 23 Jan 06:46:05 06:51:10 81° 73° (ENE) 06:56:18 437.568
SO-50 23 Jan 06:53:36 06:56:24 16° 324° (NW) 06:59:14 436.795
AO-7 23 Jan 06:59:36 07:02:24 12° 321° (NW) 07:05:13 .
KAITUO 1B 23 Jan 07:09:37 07:13:01 35° 288° (WNW) 07:16:24 145.475/437.950
NUDT-PHONESAT 23 Jan 07:15:45 07:19:03 32° 289° (WNW) 07:22:19 437.300
XW-2F 23 Jan 07:16:22 07:19:24 24° 291° (WNW) 07:22:24 145.980 - 146.000
CUBEBUG 2 23 Jan 07:16:52 07:21:36 59° 100° (E) 07:26:15 437.445
UWE-3 23 Jan 07:16:56 07:21:10 33° 96° (E) 07:25:20 435.000/436.395/437.385
FO-29 23 Jan 07:22:27 07:29:10 78° 74° (ENE) 07:35:06 435.910
XW-2D 23 Jan 07:28:58 07:31:21 16° 294° (WNW) 07:33:42 145.860 - 145.880
AAUSAT CUBESAT 2 23 Jan 07:29:13 07:32:51 30° 96° (E) 07:36:27 437.432
CUTE-I 23 Jan 07:32:57 07:37:49 37° 293° (WNW) 07:42:39 437.470
ZACube-1 23 Jan 07:34:50 07:38:40 26° 94° (E) 07:42:27 437.345
UNISAT 6 23 Jan 07:37:33 07:38:49 11° 59° (ENE) 07:40:07 437.425
AO-73 23 Jan 07:39:56 07:43:45 26° 94° (E) 07:47:28 145.935
XW-2B 23 Jan 07:47:51 07:48:55 11° 297° (WNW) 07:49:59 145.730 - 145.750
SEEDS 23 Jan 07:55:37 07:59:42 55° 286° (WNW) 08:03:44 437.485
BEESAT 3 23 Jan 07:58:53 08:00:38 13° 109° (ESE) 08:02:23 437.485
HO-68 23 Jan 08:02:05 08:09:06 60° 292° (WNW) 08:16:05 435.675
Oscar 11 23 Jan 08:10:00 08:13:55 32° 96° (E) 08:17:48 .
PCSat 23 Jan 08:12:11 08:15:37 17° 105° (ESE) 08:19:02 145.827
CUTE 1.7 + AOD 2 23 Jan 08:14:11 08:17:27 22° 293° (WNW) 08:20:43 437.475
XW-2A 23 Jan 08:27:29 08:30:47 57° 284° (WNW) 08:34:02 145.665 - 145.685
STRAND 1 23 Jan 08:28:55 08:30:57 12° 271° (W) 08:33:00 437.568
BEESAT 2 23 Jan 08:53:29 08:55:17 13° 109° (ESE) 08:57:05 435.950
UWE-3 23 Jan 08:53:34 08:57:28 27° 293° (WNW) 09:01:18 435.000/436.395/437.385
TIGRISAT 23 Jan 08:54:21 08:58:42 59° 73° (ENE) 09:03:13 435.000
CUBEBUG 2 23 Jan 08:54:40 08:57:42 17° 297° (WNW) 09:00:42 437.445
RS-15 23 Jan 08:54:59 09:07:20 72° 308° (NW) 09:19:29 29.354- 29.394
AAUSAT CUBESAT 2 23 Jan 09:04:53 09:08:08 23° 292° (WNW) 09:11:22 437.432
UNISAT 6 23 Jan 09:10:19 09:14:46 86° 257° (WSW) 09:19:23 437.425
FO-29 23 Jan 09:10:32 09:14:39 17° 268° (W) 09:18:33 435.910
ZACube-1 23 Jan 09:10:55 09:14:56 31° 291° (WNW) 09:18:52 437.345
O/OREOS (USA 219) 23 Jan 09:10:55 09:15:01 34° 60° (ENE) 09:19:06 437.305
YUBILEINY 23 Jan 09:11:20 09:19:28 41° 72° (ENE) 09:27:30 435.215
DELFI C3 23 Jan 09:15:05 09:18:35 30° 96° (E) 09:22:04 145.870
AO-73 23 Jan 09:15:57 09:19:57 31° 291° (WNW) 09:23:52 145.935
Max Valier Satellite 23 Jan 09:20:22 09:23:17 22° 94° (E) 09:26:10 145.860
EO-88 23 Jan 09:32:38 09:35:19 19° 94° (E) 09:37:59 145.990 - 145.960
BEESAT 3 23 Jan 09:33:42 09:37:38 62° 305° (NW) 09:41:37 437.485
Oscar 11 23 Jan 09:46:27 09:49:53 23° 293° (WNW) 09:53:18 .
HO-68 23 Jan 09:52:32 09:55:23 13° 312° (NW) 09:58:14 435.675
PCSat 23 Jan 09:53:00 09:58:23 70° 302° (WNW) 10:03:49 145.827
EO-79 23 Jan 10:02:12 10:03:47 12° 61° (ENE) 10:05:24 145.935-145.965
PRISM 23 Jan 10:06:52 10:10:55 88° 83° (E) 10:15:00 437.425
AO-85 23 Jan 10:18:50 10:20:35 13° 108° (ESE) 10:22:21 145.980
BEESAT 2 23 Jan 10:28:29 10:32:28 62° 306° (NW) 10:36:30 435.950
TIGRISAT 23 Jan 10:33:27 10:35:48 14° 271° (W) 10:38:11 435.000
POLYITAN 1 23 Jan 10:35:42 10:39:14 26° 67° (ENE) 10:42:47 437.675
LO-87 23 Jan 10:43:02 10:45:32 17° 93° (E) 10:48:01 145.935 - 145.965
NANOSAT C BR1 23 Jan 10:48:22 10:52:04 31° 69° (ENE) 10:55:50 145.865
ESTCUBE 1 23 Jan 10:49:52 10:53:04 19° 93° (E) 10:56:16 437.505/2401.250
DELFI C3 23 Jan 10:50:09 10:53:08 21° 293° (WNW) 10:56:07 145.870
O/OREOS (USA 219) 23 Jan 10:50:38 10:54:15 24° 257° (WSW) 10:57:52 437.305
AIST 2D 23 Jan 10:51:27 10:54:55 58° 260° (W) 10:58:24 435.315
Max Valier Satellite 23 Jan 10:53:59 10:57:02 25° 291° (WNW) 11:00:04 145.860
QB50P2 23 Jan 11:04:55 11:09:04 60° 74° (ENE) 11:13:18 145.880/145.840
EO-88 23 Jan 11:05:51 11:08:56 27° 290° (WNW) 11:12:00 145.990 - 145.960
YUBILEINY 23 Jan 11:08:11 11:16:20 46° 272° (W) 11:24:26 435.215
RS-15 23 Jan 11:11:54 11:22:24 31° 337° (NNW) 11:32:38 29.354- 29.394
BEESAT 3 23 Jan 11:15:28 11:15:58 10° 326° (NW) 11:16:29 437.485
DUCHIFAT 1 23 Jan 11:29:48 11:34:00 77° 74° (ENE) 11:38:14 145.980
EO-79 23 Jan 11:34:44 11:38:56 71° 258° (WSW) 11:43:12 145.935-145.965
PCSat 23 Jan 11:39:48 11:42:48 15° 323° (NW) 11:45:50 145.827
SPROUT 23 Jan 11:47:52 11:50:53 18° 93° (E) 11:53:54 437.525
AO-85 23 Jan 11:56:23 12:00:20 61° 307° (NW) 12:04:36 145.980
SO-50 23 Jan 12:01:28 12:04:40 18° 38° (NE) 12:07:55 436.795
BEESAT 2 23 Jan 12:10:11 12:10:59 10° 326° (NW) 12:11:49 435.950
POLYITAN 1 23 Jan 12:11:13 12:14:54 28° 264° (W) 12:18:38 437.675
VELOX 1 23 Jan 12:13:04 12:16:10 19° 93° (E) 12:19:15 145.980
LO-87 23 Jan 12:15:46 12:18:58 30° 289° (WNW) 12:22:10 145.935 - 145.965
BUGSAT 1 23 Jan 12:19:53 12:23:54 61° 74° (ENE) 12:28:01 437.445
AO-7 23 Jan 12:23:12 12:27:43 16° 44° (NE) 12:32:14 .
NANOSAT C BR1 23 Jan 12:24:23 12:27:47 23° 266° (W) 12:31:13 145.865
ESTCUBE 1 23 Jan 12:25:49 12:30:03 42° 289° (WNW) 12:34:16 437.505/2401.250
AO-91 23 Jan 12:28:30 12:31:42 40° 72° (ENE) 12:35:04 145.960
Oscar 19 23 Jan 12:28:42 12:33:43 51° 71° (ENE) 12:38:45 437.125/150
Gurwin Techsat 1B 23 Jan 12:37:44 12:42:48 47° 69° (ENE) 12:47:52 435.225
QB50P2 23 Jan 12:43:29 12:45:15 12° 270° (W) 12:47:01 145.880/145.840
SPROUT 23 Jan 13:22:53 13:26:55 40° 289° (WNW) 13:30:57 437.525
RS-15 23 Jan 13:30:17 13:39:59 27° 12° (NNE) 13:49:19 29.354- 29.394
UKube-1 23 Jan 13:38:00 13:40:52 17° 93° (E) 13:43:43 .
AO-85 23 Jan 13:40:24 13:41:44 11° 329° (NNW) 13:43:05 145.980
SO-50 23 Jan 13:40:59 13:45:43 82° 237° (WSW) 13:50:29 436.795
ITAMSAT 1 23 Jan 13:43:52 13:46:45 15° 59° (ENE) 13:49:38 435.822/435.867
VELOX 1 23 Jan 13:48:37 13:52:47 42° 289° (WNW) 13:56:56 145.980
DX 1 23 Jan 13:55:15 13:59:25 43° 99° (E) 14:03:34 434.975-435.025
BUGSAT 1 23 Jan 13:58:19 13:59:40 11° 271° (W) 14:01:02 437.445
AO-91 23 Jan 14:07:42 14:08:31 11° 270° (W) 14:09:21 145.960
Oscar 19 23 Jan 14:09:26 14:13:18 21° 268° (W) 14:17:11 437.125/150
AO-7 23 Jan 14:10:39 14:18:50 62° 65° (ENE) 14:27:04 .
50 SAT 23 Jan 14:13:08 14:16:15 69° 102° (ESE) 14:19:20 437.505
Gurwin Techsat 1B 23 Jan 14:18:46 14:22:57 23° 267° (W) 14:27:09 435.225
ITUPSAT 1 23 Jan 14:31:35 14:32:54 11° 89° (E) 14:34:13 437.325
MOZHAYETS 4 23 Jan 14:32:14 14:35:46 21° 93° (E) 14:39:15
BEESAT 23 Jan 15:06:56 15:10:58 26° 95° (E) 15:14:59 436.000
UKube-1 23 Jan 15:12:59 15:17:05 44° 289° (WNW) 15:21:10 .
ITAMSAT 1 23 Jan 15:20:23 15:25:33 78° 256° (WSW) 15:30:45 435.822/435.867
DX 1 23 Jan 15:32:14 15:35:16 19° 296° (WNW) 15:38:19 434.975-435.025
M-CUBED/EXP-1 PRIME 23 Jan 15:34:16 15:38:17 43° 67° (ENE) 15:42:03 437.505
RS-15 23 Jan 15:44:25 15:56:00 54° 44° (NE) 16:06:54 29.354- 29.394
DOVE 4 23 Jan 15:48:50 15:52:54 48° 73° (ENE) 15:56:54 437.250
AO-7 23 Jan 16:04:52 16:12:01 31° 264° (W) 16:19:16 .
ITUPSAT 1 23 Jan 16:06:28 16:11:19 82° 285° (WNW) 16:16:07 437.325
MOZHAYETS 4 23 Jan 16:08:43 16:13:03 40° 290° (WNW) 16:17:21
NO-84 23 Jan 16:10:57 16:14:06 61° 137° (SE) 16:17:02 435.350 FM
BEESAT 3 23 Jan 16:13:07 16:15:09 14° 38° (NE) 16:17:11 437.485
CUBESAT XI-V 23 Jan 16:19:36 16:24:13 69° 101° (E) 16:28:47 437.345
XW-2F 23 Jan 16:24:42 16:26:46 14° 65° (ENE) 16:28:52 145.980 - 146.000
